Date_and_time,latitude,longitude,wind_speed,RelWindDirFrom,WindDirFrom,air_pressure,air_temperature,relative_humidity,Temp,platform_speed_wrt_ground,air_pressure_at_mean_sea_level,platform_orientation
2019-05-30 23:50,50.6304466666667,-96.98078,9.4,11.1,7,977.53,16.7,58,14.55,0.0,1003.53,306.0
2019-05-31 00:00,50.63045,-96.9807683333333,9.3,11.1,7,977.43,16.8,59,14.57,0.0,1003.47,313.0
2019-05-31 00:10,50.6304266666667,-96.9806983333333,9.5,11.3,6,977.34,16.8,60,14.58,0.0,1003.39,313.0
2019-05-31 00:20,50.6304416666667,-96.9807533333333,9.3,11.3,5,977.24,16.8,61,14.63,0.0,1003.30,313.0
2019-05-31 00:30,50.6304216666667,-96.9807416666667,11.0,13.2,7,977.16,16.6,61,14.69,0.0,1003.23,313.0
2019-05-31 00:40,50.6304333333333,-96.98076,11.3,13.1,9,977.08,16.5,62,14.73,0.0,1003.13,313.0
2019-05-31 00:50,50.6304333333333,-96.9807716666667,9.9,12.2,4,977.21,16.6,61,14.72,0.0,1003.24,313.0
2019-05-31 01:00,50.6304366666667,-96.980765,9.5,11.5,6,977.25,16.7,62,14.68,0.0,1003.24,305.1
2019-05-31 01:10,50.630425,-96.9807616666667,10.0,11.4,6,977.29,16.7,63,14.59,0.0,1003.26,305.1
2019-05-31 01:20,50.6304316666667,-96.9807483333333,10.3,12.3,4,977.29,16.4,65,14.57,0.0,1003.26,305.1
2019-05-31 01:30,50.6304383333333,-96.9807516666667,10.1,12.3,4,977.36,16.2,67,14.55,0.0,1003.33,305.1
2019-05-31 01:40,50.6304383333333,-96.9807516666667,9.7,11.7,4,977.38,16.1,69,14.57,0.0,1003.37,305.1
2019-05-31 01:50,50.63044,-96.980755,9.6,11.0,9,977.37,15.7,72,14.60,0.0,1003.37,305.1
2019-05-31 02:00,50.6304416666667,-96.9807566666667,9.0,10.7,7,977.42,15.7,73,14.60,0.0,1003.42,4.5
2019-05-31 02:10,50.63044,-96.9807583333333,9.8,11.6,6,977.42,15.6,73,14.61,0.0,1003.43,4.5
2019-05-31 02:20,50.6304416666667,-96.9807583333333,10.0,12.9,3,977.52,15.3,75,14.61,0.0,1003.55,4.5
2019-05-31 02:30,50.63044,-96.9807583333333,14.7,19.0,9,977.63,15.5,71,14.57,0.0,1003.66,4.5
2019-05-31 02:40,50.6304483333333,-96.980745,12.8,18.2,2,977.87,15.8,68,14.56,0.0,1003.89,4.5
2019-05-31 02:50,50.6304433333333,-96.9807533333333,13.8,17.3,9,977.88,15.6,70,14.61,0.0,1003.90,4.5
2019-05-31 03:00,50.63044,-96.9807516666667,13.0,17.1,8,978.06,15.3,73,14.64,0.0,1004.11,143.4
2019-05-31 03:10,50.6304416666667,-96.9807566666667,13.6,15.9,9,978.22,15.2,73,14.62,0.0,1004.29,143.4
2019-05-31 03:20,50.6304433333333,-96.980755,14.3,18.3,12,978.36,15.2,74,14.61,0.0,1004.44,143.4
2019-05-31 03:30,50.6304433333333,-96.980755,16.5,18.9,11,978.40,15.1,72,14.60,0.0,1004.49,143.4
2019-05-31 03:40,50.6304416666667,-96.980755,16.6,21.2,8,978.61,14.8,72,14.59,0.0,1004.73,143.4
2019-05-31 03:50,50.6304433333333,-96.98076,16.8,20.1,9,978.69,14.5,71,14.58,0.0,1004.83,143.4
2019-05-31 04:00,50.630445,-96.9807533333333,15.4,19.3,3,978.99,14.5,70,14.59,0.0,1005.14,60.8
2019-05-31 04:10,50.6304416666667,-96.98076,17.1,22.3,5,979.13,14.3,70,14.57,0.0,1005.31,60.8
2019-05-31 04:20,50.6304366666667,-96.9807583333333,18.0,22.2,7,979.33,14.3,68,14.54,0.0,1005.51,60.8
2019-05-31 04:30,50.6304366666667,-96.98076,19.6,22.7,11,979.43,14.2,67,14.50,0.0,1005.61,60.8
2019-05-31 04:40,50.630435,-96.9807566666667,19.8,22.7,15,979.54,14.2,65,14.47,0.0,1005.73,60.8
2019-05-31 04:50,50.630435,-96.9807566666667,20.0,23.6,15,979.68,14.1,65,14.47,0.0,1005.88,60.8
2019-05-31 05:00,50.6304366666667,-96.9807566666667,18.4,21.5,9,979.69,13.7,71,14.49,0.0,1005.92,142.0
2019-05-31 05:10,50.6304366666667,-96.9807566666667,18.7,21.9,9,979.81,13.5,69,14.50,0.0,1006.05,142.0
2019-05-31 05:20,50.6304383333333,-96.9807566666667,19.2,22.7,7,979.83,13.4,67,14.52,0.0,1006.07,142.0
2019-05-31 05:30,50.630415,-96.9807383333333,19.5,23.2,8,979.79,13.4,66,14.48,0.0,1006.05,142.0
2019-05-31 05:40,50.63045,-96.9807466666667,20.9,25.8,8,979.89,13.2,66,14.42,0.0,1006.18,142.0
2019-05-31 05:50,50.6304416666667,-96.9807516666667,21.5,26.4,9,980.05,13.0,66,14.43,0.0,1006.36,142.0
2019-05-31 06:00,50.6304433333333,-96.9807533333333,24.7,29.4,11,980.00,12.8,65,14.50,0.0,1006.32,90.0
2019-05-31 06:10,50.63044,-96.9807566666667,24.6,30.4,10,980.10,12.7,64,14.50,0.0,1006.43,90.0
2019-05-31 06:20,50.6304416666667,-96.9807566666667,25.6,31.5,11,980.22,12.5,63,14.50,0.0,1006.56,90.0
2019-05-31 06:30,50.6304416666667,-96.9807566666667,25.0,30.0,12,980.34,12.3,64,14.48,0.0,1006.70,90.0
2019-05-31 06:40,50.6304416666667,-96.9807566666667,26.2,30.2,13,980.46,12.2,63,14.47,0.0,1006.83,90.0
2019-05-31 06:50,50.6304416666667,-96.980755,24.7,30.3,12,980.68,12.1,63,14.44,0.0,1007.08,90.0
2019-05-31 07:00,50.6304416666667,-96.980755,23.9,30.2,11,980.83,12.0,64,14.41,0.0,1007.24,270.0
2019-05-31 07:10,50.6304416666667,-96.980755,23.3,28.4,9,981.04,11.8,64,14.37,0.0,1007.48,270.0
2019-05-31 07:20,50.6304416666667,-96.980755,24.6,29.5,7,981.12,11.7,63,14.37,0.0,1007.57,270.0
2019-05-31 07:30,50.6304416666667,-96.9807566666667,23.0,31.0,10,981.45,11.6,65,14.39,0.0,1007.92,270.0
2019-05-31 07:40,50.6304383333333,-96.9807633333333,21.7,28.8,5,981.73,11.5,64,14.40,0.0,1008.22,270.0
2019-05-31 07:50,50.6304516666667,-96.98076,21.4,27.0,6,981.89,11.3,65,14.36,0.0,1008.40,270.0
2019-05-31 08:00,50.6304466666667,-96.98076,21.7,28.0,6,982.07,11.1,67,14.36,0.0,1008.60,360.0
2019-05-31 08:10,50.6304416666667,-96.98076,22.0,28.3,4,982.23,10.8,65,14.36,0.0,1008.79,360.0
2019-05-31 08:20,50.6304316666667,-96.9807683333333,23.9,29.2,10,982.41,10.7,67,14.34,0.0,1008.98,360.0
2019-05-31 08:30,50.6304316666667,-96.9807633333333,22.3,26.8,6,982.62,10.6,67,14.32,0.0,1009.21,360.0
2019-05-31 08:40,50.6304333333333,-96.980765,21.4,26.6,6,982.91,10.4,68,14.31,0.0,1009.53,360.0
2019-05-31 08:50,50.6304333333333,-96.980765,22.4,28.4,6,983.04,10.3,68,14.26,0.0,1009.66,360.0
2019-05-31 09:00,50.6304333333333,-96.9807633333333,23.0,27.6,6,983.22,10.1,68,14.26,0.0,1009.86,228.3
2019-05-31 09:10,50.6304333333333,-96.9807633333333,22.8,27.4,7,983.47,10.0,70,14.26,0.0,1010.14,228.3
2019-05-31 09:20,50.630435,-96.9807633333333,21.6,27.4,6,983.70,9.8,70,14.19,0.0,1010.39,228.3
2019-05-31 09:30,50.630435,-96.9807616666667,22.4,28.2,7,983.80,9.7,70,14.15,0.0,1010.50,228.3
2019-05-31 09:40,50.630435,-96.9807616666667,24.0,28.7,9,983.80,9.6,70,14.14,0.0,1010.51,228.3
2019-05-31 09:50,50.630435,-96.9807616666667,25.6,31.5,8,983.84,9.5,70,14.16,0.0,1010.57,228.3
2019-05-31 10:00,50.6304366666667,-96.9807616666667,23.9,29.7,9,984.03,9.5,73,14.23,0.0,1010.78,142.0
2019-05-31 10:10,50.6304366666667,-96.9807616666667,22.7,29.1,7,984.29,9.4,76,14.25,0.0,1011.06,142.0
2019-05-31 10:20,50.6304466666667,-96.9807866666667,19.4,25.7,359,984.55,9.0,81,14.22,0.0,1011.35,142.0
2019-05-31 10:30,50.63044,-96.9807666666667,24.6,30.5,5,984.48,8.7,82,14.19,0.0,1011.30,142.0
2019-05-31 10:40,50.63044,-96.9807633333333,23.9,30.3,5,984.67,8.4,83,14.09,0.0,1011.51,142.0
2019-05-31 10:50,50.6304383333333,-96.9807566666667,25.3,29.8,8,984.83,8.3,83,14.13,0.0,1011.70,142.0
2019-05-31 11:00,50.6304416666667,-96.9807716666667,25.9,30.8,11,984.94,8.2,85,14.17,0.0,1011.82,234.7
2019-05-31 11:10,50.6304433333333,-96.98077,26.0,31.5,14,985.07,7.9,86,14.16,0.0,1011.97,234.7
2019-05-31 11:20,50.6304433333333,-96.9807666666667,26.1,30.3,15,985.13,7.9,87,14.15,0.0,1012.04,234.7
2019-05-31 11:30,50.6304433333333,-96.9807683333333,25.1,31.0,16,985.40,7.7,87,14.13,0.0,1012.33,234.7
2019-05-31 11:40,50.6304333333333,-96.9807616666667,24.6,29.1,16,985.61,7.5,88,14.09,0.0,1012.56,234.7
2019-05-31 11:50,50.6304483333333,-96.98079,21.9,28.1,6,985.99,7.3,89,14.01,0.0,1012.96,234.7
2019-05-31 12:00,50.6304416666667,-96.9807633333333,24.0,29.6,8,986.16,7.0,88,14.03,0.0,1013.16,38.0
2019-05-31 12:10,50.630435,-96.9807533333333,23.7,30.8,10,986.35,6.8,89,14.08,0.0,1013.38,38.0
2019-05-31 12:20,50.6304366666667,-96.9807516666667,24.0,28.3,14,986.46,6.7,90,14.07,0.0,1013.51,38.0
2019-05-31 12:30,50.6304383333333,-96.980755,23.8,29.3,11,986.67,6.6,90,14.01,0.0,1013.75,38.0
2019-05-31 12:40,50.6304366666667,-96.98076,21.1,26.2,7,986.94,6.5,92,14.02,0.0,1014.04,38.0
2019-05-31 12:50,50.63044,-96.9807916666667,21.0,26.7,8,987.13,6.5,92,14.05,0.0,1014.24,38.0
2019-05-31 13:00,50.6304466666667,-96.98076,20.8,25.3,9,987.40,6.4,92,14.05,0.0,1014.53,360.0
2019-05-31 13:10,50.6304416666667,-96.98076,20.2,25.6,9,987.53,6.4,92,14.03,0.0,1014.67,360.0
2019-05-31 13:20,50.6304416666667,-96.9807716666667,20.0,24.4,7,987.68,6.4,92,13.99,0.0,1014.83,360.0
2019-05-31 13:30,50.630425,-96.9807533333333,19.8,25.3,6,987.77,6.4,91,13.99,0.0,1014.93,360.0
2019-05-31 13:40,50.630435,-96.98076,19.8,26.8,5,987.88,6.4,91,14.00,0.0,1015.06,360.0
2019-05-31 13:50,50.63043,-96.9807616666667,22.3,26.8,8,987.94,6.3,88,13.96,0.0,1015.14,360.0
2019-05-31 14:00,50.630435,-96.9807633333333,21.4,26.6,6,988.12,6.4,88,13.95,0.0,1015.33,131.7
2019-05-31 14:10,50.630445,-96.980745,21.7,26.6,8,988.23,6.4,87,13.92,0.0,1015.44,131.7
2019-05-31 14:20,50.63044,-96.9807683333333,20.1,26.2,6,988.44,6.5,87,13.86,0.0,1015.66,131.7
2019-05-31 14:30,50.6304366666667,-96.98077,19.2,26.4,5,988.53,6.5,88,13.85,0.0,1015.76,131.7
2019-05-31 14:40,50.6304433333333,-96.9807833333333,20.8,28.5,13,988.49,6.7,88,13.88,0.0,1015.71,131.7
2019-05-31 14:50,50.6304433333333,-96.9807716666667,22.0,28.0,17,988.52,6.7,87,13.83,0.0,1015.73,131.7
2019-05-31 15:00,50.630435,-96.980765,20.7,26.9,15,988.68,6.7,85,13.80,0.0,1015.91,142.0
2019-05-31 15:10,50.6304466666667,-96.9807683333333,20.4,25.9,15,988.90,6.8,85,13.80,0.0,1016.13,142.0
2019-05-31 15:20,50.63044,-96.9807566666667,20.9,24.6,20,989.01,6.8,83,13.79,0.0,1016.24,142.0
2019-05-31 15:30,50.6304366666667,-96.98077,18.4,22.9,11,989.26,6.9,82,13.81,0.0,1016.50,142.0
2019-05-31 15:40,50.630445,-96.9807616666667,16.8,23.2,13,989.40,7.0,81,13.81,0.0,1016.64,142.0
2019-05-31 15:50,50.6304416666667,-96.9807583333333,18.4,23.6,13,989.42,7.1,78,13.83,0.0,1016.65,142.0
2019-05-31 16:00,50.6304416666667,-96.9807583333333,18.5,23.3,14,989.54,7.4,78,13.82,0.0,1016.76,360.0
2019-05-31 16:10,50.630435,-96.98074,17.2,21.8,9,989.57,7.5,77,13.80,0.0,1016.78,360.0
2019-05-31 16:20,50.630435,-96.98075,17.9,22.2,12,989.58,7.6,75,13.80,0.0,1016.78,360.0
2019-05-31 16:30,50.6304333333333,-96.9807516666667,17.0,21.5,10,989.66,7.7,75,13.81,0.0,1016.85,360.0
2019-05-31 16:40,50.630435,-96.980765,16.6,22.2,8,989.71,7.8,73,13.83,0.0,1016.89,360.0
2019-05-31 16:50,50.6304366666667,-96.9807683333333,15.9,21.1,14,989.86,7.8,72,13.82,0.0,1017.05,360.0
2019-05-31 17:00,50.63043,-96.9807633333333,15.6,20.0,11,989.84,7.8,72,13.82,0.0,1017.02,360.0
2019-05-31 17:10,50.6304316666667,-96.9807583333333,16.0,21.0,7,989.78,8.0,70,13.83,0.0,1016.95,360.0
2019-05-31 17:20,50.6304333333333,-96.980755,15.7,19.6,9,989.75,8.2,70,13.84,0.0,1016.91,360.0
2019-05-31 17:30,50.6304333333333,-96.980755,16.4,21.4,15,989.86,8.2,68,13.85,0.0,1017.02,360.0
2019-05-31 17:40,50.6304333333333,-96.9807566666667,15.6,20.2,17,989.94,8.3,67,13.86,0.0,1017.09,360.0
2019-05-31 17:50,50.630435,-96.9807583333333,16.6,21.1,18,989.89,8.6,66,13.87,0.0,1017.01,360.0
2019-05-31 18:00,50.630435,-96.98076,14.8,18.8,24,989.93,8.6,68,13.87,0.0,1017.04,90.0
2019-05-31 18:10,50.6304366666667,-96.98076,16.7,20.8,24,989.83,8.9,65,13.88,0.0,1016.92,90.0
2019-05-31 18:20,50.6304383333333,-96.98076,17.4,20.1,22,989.75,9.1,63,13.90,0.0,1016.82,90.0
2019-05-31 18:30,50.6304383333333,-96.98076,17.6,20.8,20,989.63,9.2,62,13.92,0.0,1016.69,90.0
2019-05-31 18:40,50.630435,-96.9807583333333,16.3,19.3,18,989.62,9.4,62,13.94,0.0,1016.66,90.0
2019-05-31 18:50,50.6304383333333,-96.9807583333333,16.0,19.0,19,989.56,9.5,61,13.95,0.0,1016.60,90.0
2019-05-31 19:00,50.63044,-96.980755,15.3,17.6,25,989.55,9.6,59,13.96,0.0,1016.58,90.0
2019-05-31 19:10,50.6304416666667,-96.980755,15.2,17.8,21,989.48,9.8,60,13.97,0.0,1016.48,90.0
2019-05-31 19:20,50.6304433333333,-96.9807583333333,16.5,19.0,21,989.26,10.0,59,13.98,0.0,1016.25,90.0
2019-05-31 19:30,50.630435,-96.9807566666667,16.5,18.8,21,989.14,10.1,57,13.99,0.0,1016.12,90.0
2019-05-31 19:40,50.6304366666667,-96.9807566666667,16.4,19.0,21,989.09,10.3,58,14.02,0.0,1016.04,90.0
2019-05-31 19:50,50.6304383333333,-96.9807533333333,16.5,19.3,25,988.99,10.4,57,14.05,0.0,1015.93,90.0
2019-05-31 20:00,50.6304366666667,-96.9807483333333,15.4,18.1,21,988.93,10.7,56,14.06,0.0,1015.85,36.6
2019-05-31 20:10,50.6304383333333,-96.9807516666667,16.8,18.6,23,988.81,10.8,54,14.07,0.0,1015.71,36.6
2019-05-31 20:20,50.6304383333333,-96.9807533333333,14.8,17.3,33,988.86,10.7,53,14.09,0.0,1015.75,36.6
2019-05-31 20:30,50.6304383333333,-96.9807533333333,12.9,15.0,42,988.84,10.8,54,14.11,0.0,1015.72,36.6
2019-05-31 20:40,50.630435,-96.9807483333333,12.8,15.5,38,988.76,10.8,54,14.13,0.0,1015.63,36.6
2019-05-31 20:50,50.6304433333333,-96.98075,12.8,15.2,29,988.72,11.0,54,14.16,0.0,1015.58,36.6
2019-05-31 21:00,50.630445,-96.9807566666667,10.2,12.9,38,988.81,11.2,54,14.19,0.0,1015.65,38.0
2019-05-31 21:10,50.6304416666667,-96.980775,11.3,13.9,40,988.64,11.3,54,14.22,0.0,1015.46,38.0
2019-05-31 21:20,50.63046,-96.9807783333333,9.7,11.7,34,988.59,11.4,54,14.26,0.0,1015.40,38.0
2019-05-31 21:30,50.630445,-96.9807583333333,9.6,11.5,35,988.56,11.5,53,14.31,0.0,1015.36,38.0
2019-05-31 21:40,50.630445,-96.980755,10.8,13.2,31,988.43,11.7,51,14.32,0.0,1015.21,38.0
2019-05-31 21:50,50.63049,-96.9807666666667,12.4,15.0,25,988.19,11.8,53,14.29,0.0,1014.94,38.0
2019-05-31 22:00,50.6304333333333,-96.98074,13.2,15.7,25,988.09,11.9,53,14.29,0.0,1014.84,143.4
2019-05-31 22:10,50.6304583333333,-96.9807583333333,13.3,15.2,26,988.00,12.0,53,14.29,0.0,1014.74,143.4
2019-05-31 22:20,50.6304583333333,-96.980765,12.6,15.3,23,988.04,12.2,55,14.33,0.0,1014.77,143.4
2019-05-31 22:30,50.630455,-96.980765,13.2,15.6,22,988.04,12.2,53,14.31,0.0,1014.77,143.4
2019-05-31 22:40,50.6304516666667,-96.980765,12.8,15.3,26,988.00,12.3,54,14.32,0.0,1014.71,143.4
2019-05-31 22:50,50.6304516666667,-96.9807616666667,13.3,14.8,29,987.93,12.5,51,14.30,0.0,1014.62,143.4
2019-05-31 23:00,50.6304516666667,-96.9807616666667,12.6,14.7,27,987.93,12.6,53,14.32,0.0,1014.61,360.0
2019-05-31 23:10,50.6304516666667,-96.9807616666667,13.5,16.2,24,987.88,12.6,52,14.32,0.0,1014.56,360.0
2019-05-31 23:20,50.6304516666667,-96.9807616666667,13.7,15.7,26,987.79,12.7,51,14.33,0.0,1014.45,360.0
2019-05-31 23:30,50.6304233333333,-96.9807416666667,14.3,16.7,25,987.76,12.7,51,14.33,0.0,1014.41,360.0
2019-05-31 23:40,50.630455,-96.980775,13.4,15.7,24,987.82,12.8,52,14.34,0.0,1014.46,360.0
2019-05-31 23:50,50.63045,-96.9807566666667,13.7,16.2,24,987.74,12.7,53,14.35,0.0,1014.38,360.0
